User: anonymous   Login
Location: T�bingen+AIT
(48.5342°N, 9.0700°E)
Time: 16:00:29
(UTC+01:00)
Language:

GP-B - Orbit

View from above orbital plane
View from above orbital plane
View from above satellite
View from above satellite

Ground track
Ground track

The orbit data is extracted from the following two-line orbital elements,

1 28230U 04014A   18051.74375021  .00000108  00000-0  12546-4 0  9999
2 28230  89.8383 117.1691 0002681  76.0134 284.1387 14.78601076745829
Epoch (UTC): 20 February 2018 17:51:00
Eccentricity: 0.0002681
inclination: 89.8383°
perigee height: 632 km
apogee height: 635 km
right ascension of ascending node: 117.1691°
argument of perigee: 76.0134°
revolutions per day: 14.78601076
mean anomaly at epoch: 284.1387°
orbit number at epoch: 74582

The dashed part of the orbit path shows where the satellite is in the earth's shadow,  

DLR